This demonstration page uses our WeatherBlox Daily Observations layout. Learn more.

Left ArrowRight Arrow

Hourly Observations for September 29, 2020

Temp ( °F °C ) Dew Point ( °F °C ) Humidity (%) Winds ( mph kmh ) Pressure ( in mb ) Visibility ( mi km ) Precip ( " mm )
12:53 am 00:53 Clear 57 13.9 37 2.8 47 47 WSW 17 28 30.05 1018 10 16 0.00 0.00
1:53 am 01:53 Clear 56 13.3 37 2.8 49 49 SW 16 26 30.06 1018 10 16 0.00 0.00
2:53 am 02:53 Clear 56 13.3 37 2.8 49 49 SW 15 24 30.06 1018 10 16 0.00 0.00
3:53 am 03:53 Clear 55 12.8 37 2.8 51 51 SW 14 22 30.06 1018 10 16 0.00 0.00
4:53 am 04:53 Clear 53 11.7 37 2.8 55 55 SW 14 22 30.06 1018 10 16 0.00 0.00
5:53 am 05:53 Clear 53 11.7 37 2.8 55 55 SW 17 28 30.05 1018 10 16 0.00 0.00
6:53 am 06:53 Clear 55 12.8 37 2.8 51 51 SW 17 28 30.04 1017 10 16 0.00 0.00
7:53 am 07:53 Sunny 55 12.8 38 3.3 53 53 SW 15 24 30.05 1018 10 16 0.00 0.00
8:53 am 08:53 Sunny 60 15.6 39 3.9 46 46 SW 14 22 30.06 1018 10 16 0.00 0.00
9:53 am 09:53 Sunny 63 17.2 39 3.9 41 41 SW 17 28 30.05 1018 10 16 0.00 0.00
10:53 am 10:53 Sunny 67 19.4 40 4.4 37 37 SW 16 26 30.03 1017 10 16 0.00 0.00
11:53 am 11:53 Sunny 74 23.3 41 5 31 31 SW 12 19 29.99 1016 10 16 0.00 0.00
12:53 pm 12:53 Sunny 78 25.6 40 4.4 26 26 WNW 14 22 29.97 1015 10 16 0.00 0.00
1:53 pm 13:53 Sunny 79 26.1 41 5 26 26 WNW 21 33 29.96 1015 10 16 0.00 0.00
2:53 pm 14:53 Sunny 80 26.7 41 5 25 25 NNW 14 22 29.95 1014 10 16 0.00 0.00
3:53 pm 15:53 Sunny 79 26.1 42 5.6 27 27 NNW 21 33 29.95 1014 10 16 0.00 0.00
4:53 pm 16:53 Sunny 76 24.4 43 6.1 31 31 N 20 31 29.97 1015 10 16 0.00 0.00
5:53 pm 17:53 Sunny 71 21.7 41 5 34 34 NNE 14 22 30.02 1017 10 16 0.00 0.00
6:53 pm 18:53 Sunny 64 17.8 40 4.4 41 41 NNE 16 26 30.06 1018 10 16 0.00 0.00
7:53 pm 19:53 Clear 59 15 39 3.9 48 48 ENE 10 17 30.11 1020 10 16 0.00 0.00
8:53 pm 20:53 Clear 53 11.7 40 4.4 61 61 SE 6 9 30.15 1021 10 16 0.00 0.00
9:53 pm 21:53 Clear 54 12.2 37 2.8 53 53 NW 6 9 30.19 1022 10 16 0.00 0.00
10:53 pm 22:53 Mostly Clear 50 10 35 1.7 57 57 NW 7 11 30.22 1023 10 16 0.00 0.00
11:53 pm 23:53 Partly Cloudy 52 11.1 30 -1.1 43 43 NW 7 11 30.25 1025 10 16 0.00 0.00

Powered by Vaisala Xweather